Home   Weather   Novorossiysk   Past weeks

Flag for Russia Past Weather in Novorossiysk, Russia — Yesterday and Last 2 Weeks

Now
63 °F

Scattered clouds.


Feels Like: 63 °F
Forecast: 45 / 71 °F
Wind: 13 mph from Northeast

Location: Anapa / Vitiazevo

Current Time: May 25, 2017 at 1:31:43 pm

Latest Report: May 25, 2017 at 12:30 pm


Visibility: N/A

Pressure: 30.07 "Hg

Humidity: 68%

Dew Point: 52 °F

Location of NovorossiyskLocation

Past Weather in Novorossiysk — Graph

°F

Novorossiysk Temperature Yesterday

Maximum temperature yesterday: 64 °F (at 10:00 am)
Minimum temperature yesterday: 54 °F (at 12:00 am)
Average temperature yesterday: 58 °F

High & Low Weather Summary for the Past Weeks

 TemperatureHumidityPressure
High75 °F (May 13, 1:30 pm)100% (May 10, 4:30 pm)30.18 "Hg (May 10, 4:30 pm)
Low37 °F (May 12, 1:30 am)34% (May 13, 1:30 pm)29.68 "Hg (May 10, 12:00 pm)
Average57 °F82%29.95 "Hg
* Reported May 10 12:00 pm — May 25 12:00 pm, Novorossiysk. Weather by CustomWeather, © 2017

Note: Actual official high and low records may vary slightly from our data, if they occured in-between our weather recording intervals... More about our weather records

Advertising

Novorossiysk Weather History for the Previous 24 Hours

Scroll right to see more
 ConditionsComfort  
Time TempWeatherWind HumidityBarometerVisibility
12:00 pm
Thu, May 25
64 °FScattered clouds.13 mph64%30.07 "HgN/A
11:30 am64 °FScattered clouds.10 mph60%30.09 "HgN/A
11:00 am64 °FScattered clouds.10 mph64%30.07 "HgN/A
10:30 am64 °FPassing clouds.6 mph64%30.07 "HgN/A
10:00 am63 °FPassing clouds.8 mph64%30.09 "HgN/A
9:30 am63 °FPassing clouds.8 mph68%30.09 "HgN/A
9:00 am61 °FPassing clouds.10 mph68%30.09 "HgN/A
8:30 am63 °FPassing clouds.8 mph64%30.09 "HgN/A
8:00 am63 °FPassing clouds.6 mph59%30.07 "HgN/A
7:30 am61 °FPassing clouds.3 mph68%30.09 "HgN/A
7:00 am59 °FSunny.8 mph82%30.07 "HgN/A
6:30 am55 °FSunny.8 mph94%30.09 "HgN/A
6:00 am54 °FSunny.10 mph100%30.09 "HgN/A
5:30 am52 °FSunny.6 mph94%30.09 "HgN/A
5:00 am50 °FSunny.10 mph100%30.09 "HgN/A
4:30 am50 °FClear.6 mph100%30.09 "HgN/A
4:00 am52 °FClear.3 mph94%30.09 "HgN/A
3:30 am52 °FClear.6 mph100%30.09 "HgN/A
3:00 am52 °FCool.6 mph94%30.09 "HgN/A
2:30 am50 °FClear.3 mph100%30.09 "HgN/A
2:00 am50 °FClear.3 mph100%30.09 "HgN/A
1:30 am52 °FClear.3 mph94%30.09 "HgN/A
1:00 am54 °FCool.6 mph94%30.09 "HgN/A
12:30 am52 °FClear.3 mph94%30.09 "HgN/A
12:00 am52 °FClear.3 mph100%30.09 "HgN/A
11:30 pm
Wed, May 24
54 °FPassing clouds.3 mph94%30.09 "HgN/A
11:00 pm54 °FPassing clouds.3 mph94%30.09 "HgN/A
10:30 pm54 °FPassing clouds.1 mph94%30.09 "HgN/A
10:00 pm54 °FPassing clouds.3 mph94%30.09 "HgN/A
9:30 pm55 °FPassing clouds.3 mph88%30.09 "HgN/A
9:00 pm55 °FPassing clouds.3 mph88%30.09 "HgN/A
8:30 pm57 °FPassing clouds.6 mph82%30.09 "HgN/A
8:00 pm57 °FPassing clouds.6 mph82%30.09 "HgN/A
7:30 pm59 °FPassing clouds.6 mph77%30.09 "HgN/A
7:00 pm59 °FPassing clouds.6 mph77%30.09 "HgN/A
6:30 pm61 °FScattered clouds.6 mph72%30.07 "HgN/A
6:00 pm61 °FScattered clouds.10 mph72%30.07 "HgN/A
5:30 pm63 °FScattered clouds.6 mph73%30.07 "HgN/A
5:00 pm63 °FScattered clouds.6 mph73%30.07 "HgN/A
4:30 pm63 °FScattered clouds.3 mph73%30.07 "HgN/A
4:00 pm63 °FScattered clouds.8 mph73%30.09 "HgN/A
3:30 pm63 °FScattered clouds.8 mph68%30.09 "HgN/A
3:00 pm61 °FScattered clouds.8 mph72%30.07 "HgN/A
2:30 pm63 °FScattered clouds.13 mph73%30.07 "HgN/A
2:00 pm63 °FPartly sunny.8 mph73%30.07 "HgN/A
1:30 pm63 °FPartly sunny.8 mph73%30.07 "HgN/A
1:00 pm63 °FScattered clouds.8 mph77%30.07 "HgN/A
Weather by CustomWeather, © 2017

See weather overviewHow to use our weather pages